Location: Unspecified
(0.0000°N, 0.0000°E)
Time: 22:16:41
(UTC+02:00)

USA 116 - Visible Passes

Search period start: 01 August 2015 00:00
Search period end: 11 August 2015 00:00
Orbit: 405 x 834 km, 97.9° (Epoch: 18 November)

Date Brightness Start Highest point End Pass type
(mag) Time Alt. Az. Time Alt. Az. Time Alt. Az.
01 Aug 4.5 06:54:23 10° S 06:59:09 43° WSW 07:03:24 10° NNW visible
02 Aug 7.0 05:35:05 10° ESE 05:37:34 15° E 05:40:11 10° NE visible
02 Aug 5.0 07:09:14 10° SSW 07:13:28 28° WSW 07:17:13 10° NW visible
03 Aug 6.4 05:48:23 10° SE 05:52:02 22° E 05:55:30 10° NNE visible
03 Aug 5.5 07:24:26 10° SSW 07:27:47 18° WSW 07:30:41 10° WNW visible
04 Aug 5.6 06:02:09 10° SE 06:06:27 34° E 06:10:22 10° NNE visible
04 Aug 5.9 07:40:35 10° WSW 07:42:06 11° WSW 07:43:11 10° W visible
05 Aug 4.7 06:16:12 10° SSE 06:20:51 54° E 06:24:58 10° N visible
06 Aug 3.9 06:30:28 10° SSE 06:35:12 88° E 06:39:21 10° N visible
07 Aug 4.0 06:44:55 10° S 06:49:31 57° WSW 06:53:31 10° NNW visible
08 Aug 4.5 06:59:36 10° SSW 07:03:48 34° WSW 07:07:29 10° NW visible
09 Aug 6.8 05:39:57 10° ESE 05:42:11 14° E 05:44:31 10° NE visible
09 Aug 5.1 07:14:35 10° SSW 07:18:04 22° WSW 07:21:09 10° NW visible
10 Aug 6.2 05:53:17 10° SE 05:56:37 22° E 05:59:47 10° NNE visible
10 Aug 5.6 07:30:06 10° SW 07:32:22 13° WSW 07:34:14 10° WNW visible
